Vertical_Velocity
1 1 1 0 1 1 1 1 1 1 1 1 1 1 1 1 0 0 1 1 1 1 1 1 2 2 2 2 1 0 -0 -1 -1 -1 -0 -0 -0 -0 -0 -0 -1 -1 -1 -0 0 1 0 0 0 -0 -0 0 -0 -0 -0 -1 -1 -1 -1 -1 -1 -1 -1 -0 -0 -0 -0 0 0 0 0 0 -0 -1 -1 -1 -1 -0 -0 -0 0 0 0 0 -0 -0 -0 -0 -0 -0 0 0 0 0 0 -0 -0 -0 0 0 0 0 -0
1 1 1 1 1 1 1 1 1 1 1 1 1 1 1 1 1 0 1 1 1 1 1 1 1 2 2 2 1 1 0 -0 -0 -0 -0 -0 -0 -0 -0 -1 -1 -1 -1 -1 -0 0 0 -0 -0 -0 -0 -0 -0 -0 -0 -0 -1 -1 -1 -1 -1 -1 -1 -1 -1 -0 -0 -0 -0 0 0 1 0 -0 -1 -1 -1 -1 -1 -0 -0 0 0 0 0 -0 -0 -0 -0 -0 0 0 0 0 0 -0 -0 -0 -0 -0 -0 -0 -0
1 1 1 1 1 1 1 1 1 1 1 1 1 1 1 1 1 1 0 1 1 1 1 1 1 1 2 2 1 1 1 0 -0 -0 -0 -0 -0 -0 -0 -0 -1 -1 -2 -2 -1 -1 -0 -0 -0 -0 -0 -1 -0 -0 -0 -0 -1 -1 -0 -0 -1 -1 -1 -1 -1 -1 -1 -0 -0 -0 -0 0 1 0 0 -0 -1 -1 -1 -1 -0 -0 0 0 0 0 -0 -0 -0 -0 0 0 1 1 0 0 0 -0 -0 -0 -0 -0 -0
0 0 1 1 1 1 0 0 0 0 1 1 1 1 1 1 1 0 0 1 1 0 1 1 1 1 1 1 1 1 1 1 0 -0 -0 -0 -0 -0 -0 -0 -0 -1 -2 -2 -2 -1 -1 -1 -1 -1 -1 -1 -1 -0 -0 -1 -1 -1 -0 -0 -0 -1 -1 -1 -1 -1 -1 -1 -1 -1 -1 -0 0 0 0 0 -0 -1 -1 -1 -0 -0 -0 0 0 0 0 0 0 -0 0 0 1 1 1 1 1 0 0 0 0 -0 -0
-0 -0 1 1 1 -0 -0 -0 -0 -0 -0 0 0 0 1 1 0 0 0 1 1 2 2 1 1 1 1 1 1 1 1 1 0 -0 -1 -1 -1 -0 -0 -0 -1 -1 -1 -2 -2 -2 -2 -2 -1 -1 -1 -1 -1 -1 -0 -1 -1 -1 -1 -0 -0 -1 -1 -1 -1 -1 -1 -1 -1 -1 -1 -1 -0 -0 0 0 0 -0 -0 -0 -0 -0 -0 0 0 0 0 0 0 0 0 0 0 0 1 1 1 1 1 1 0 0 -0
-0 -0 1 1 0 -1 -1 -1 -1 -1 -0 -0 -0 -0 0 0 -0 -0 -0 1 2 2 0 -0 0 1 1 1 1 1 1 1 0 -0 -1 -1 -1 -1 -1 -1 -1 -1 -2 -2 -2 -2 -2 -2 -1 -1 -1 -1 -1 -1 -0 -1 -1 -1 -1 -1 -1 -1 -1 -0 -0 -1 -1 -1 -1 -1 -1 -1 -1 -0 -0 0 0 0 -0 -0 -0 -0 -0 0 0 0 0 0 0 0 0 0 0 0 0 0 0 0 1 1 1 0 0
-1 -1 -1 -1 -1 -1 -1 -1 -1 -1 -1 -0 -0 -0 -0 -0 -0 -0 -0 0 2 2 -2 -0 -0 -0 -0 0 0 1 1 1 0 -0 -1 -1 -1 -1 -1 -1 -2 -2 -2 -2 -2 -2 -2 -1 -1 -1 -0 -1 -1 -1 -1 -0 -0 -1 -1 -1 -1 -1 -1 -1 -0 -1 -1 -0 -1 -1 -1 -1 -1 -1 -0 -0 -0 -0 -0 -0 -0 -0 0 0 0 0 0 0 0 0 0 0 -0 -0 -0 -0 -0 -0 0 0 0 0 0
-1 -1 -1 -1 -1 -1 -1 -1 -1 -1 -1 -1 -0 -0 -0 -0 -1 -1 -1 -1 0 1 0 -0 -0 -0 -0 -0 -0 -0 -0 0 -0 -0 -1 -1 -1 -1 -1 -1 -1 -2 -2 -2 -2 -2 -2 -1 -1 -1 -0 -0 -0 -1 -1 -0 -0 -0 -1 -1 -1 -1 -1 -0 -0 -0 -0 -0 -0 -1 -1 -1 -1 -1 -1 -0 -0 -0 -0 -0 -0 -0 -0 -0 -0 -0 -0 -0 -0 0 0 -0 -0 -0 -0 -0 -0 -0 -0 -0 -0 0 0
-1 -1 -1 -1 -1 -1 -1 -1 -1 -1 -1 -1 -0 -0 -0 -0 -0 -1 -1 -1 -0 0 1 1 0 -0 -0 -1 -1 -0 -0 -0 -0 -0 -1 -1 -1 -1 -1 -1 -1 -1 -2 -2 -2 -2 -2 -1 -1 -1 -0 0 0 -0 -1 -0 -0 -0 -0 -1 -1 -1 -1 -0 -0 -0 -0 -0 -0 -0 -1 -1 -1 -1 -1 -1 -0 -0 -0 -0 -0 -0 -0 -0 -0 0 0 -0 -0 -0 0 -0 -0 0 0 0 -0 -0 -0 -0 -0 -0 0
-1 -1 -1 -1 -1 -1 -1 -1 -1 -1 -1 -1 -1 -0 -0 -0 -0 -0 -0 -0 -0 -0 0 0 0 -0 -0 -0 -0 -0 -0 -0 -0 -0 -0 -1 -1 -1 -1 -1 -1 -1 -2 -2 -2 -2 -2 -2 -1 -1 -1 0 0 0 -0 -0 -0 -0 -0 -0 -1 -1 -0 -0 -0 -0 -0 -0 -0 -0 -0 -1 -1 -1 -0 -1 -1 -0 -0 -0 -0 -0 -0 -0 -0 0 0 -0 -0 0 0 0 0 0 0 0 0 -0 -0 -0 -0 -0 0
-1 -1 -1 -1 -1 -1 -1 -1 -1 -1 -1 -1 -1 -1 -0 -0 -0 -0 -0 -0 -0 -0 -0 0 0 0 -0 -0 -0 -0 -0 0 0 0 -0 -0 -1 -1 -1 -1 -0 -0 -1 -1 -2 -2 -2 -2 -2 -1 -1 -0 -0 0 0 -0 -0 -0 -0 -0 -0 -1 -0 -0 -0 -0 -0 -0 0 0 0 -0 -0 -1 -1 -1 -1 -0 -0 -0 -0 -0 -0 -0 0 0 0 0 0 0 0 0 1 1 0 0 0 0 0 -0 -0 -0 -0
-1 -1 -0 -0 -0 -1 -1 -1 -1 -1 -1 -1 -1 -1 -1 -1 -1 -1 -0 -0 -0 -0 -0 -0 -0 -0 -0 -0 -0 -0 0 0 0 1 0 -0 -0 -0 -1 -1 -0 -0 -0 -1 -1 -2 -2 -2 -2 -2 -2 -1 -0 0 0 -0 -0 -0 -0 -0 -0 -0 -0 -0 -0 -0 -0 -0 0 0 1 1 1 0 -0 -1 -1 -1 -0 -0 -0 0 0 0 0 0 0 1 1 0 1 1 1 1 1 1 1 1 0 0 0 -0 -0
-1 -0 -0 -1 -1 -1 -1 -1 -1 -1 -1 -1 -1 -1 -1 -1 -1 -1 -1 -0 -0 -1 -0 -0 -0 -0 -0 -0 -0 -0 0 1 1 1 1 0 0 -0 -0 -0 -0 -0 -0 -0 -1 -1 -2 -2 -3 -2 -2 -1 -1 -0 0 0 -0 -0 -0 -0 -0 -0 -0 -0 -0 -0 -0 -0 -0 -0 0 1 1 1 1 -0 -0 -1 -0 -0 -0 0 0 0 0 0 0 1 1 1 1 1 1 1 1 1 1 1 0 0 0 0 0
-0 -0 -0 -1 -1 -1 -1 -1 -1 -1 -1 -1 -1 -1 -1 -1 -1 -1 -1 -1 -1 -1 -0 -0 -0 -0 -0 -0 -0 -0 0 1 1 1 1 1 1 0 -0 -0 -0 -0 -0 -0 -0 -1 -2 -2 -2 -3 -2 -2 -1 -1 -0 -0 -0 -0 -0 -0 -0 -0 -0 -0 -0 -0 -0 -0 -0 -0 -0 0 1 1 1 0 0 -0 -0 -0 0 0 1 1 1 1 0 1 1 1 1 1 1 1 1 1 1 1 0 1 1 1 0
-0 -0 -0 -0 -1 -1 -1 -1 -1 -1 -1 -1 -1 -1 -1 -1 -1 -1 -1 -1 -1 -1 -1 -1 -1 -1 -1 -0 -0 -0 0 0 1 1 1 1 1 0 -0 -0 -0 -0 -0 -0 -0 -0 -1 -1 -2 -2 -2 -2 -2 -1 -0 -0 -0 -0 -0 -0 -0 -0 -0 -0 -0 -0 -0 -0 0 -0 -0 -0 0 1 1 1 1 1 0 0 0 0 1 1 1 1 0 0 1 1 1 1 1 1 1 1 1 1 1 1 1 1 1
-0 -0 -0 -0 -0 -1 -1 -1 -1 -1 -1 -1 -1 -1 -1 -1 -1 -1 -1 -1 -1 -1 -1 -1 -1 -1 -1 -1 -0 -0 0 0 0 1 1 1 0 0 -0 -0 -0 -0 -0 -0 -0 -0 -0 -0 -1 -2 -2 -2 -2 -1 -1 -1 -0 -0 -0 -0 -0 -0 -0 -0 -1 -1 -0 -0 0 0 -0 -0 -0 -0 0 1 1 1 1 0 0 0 1 1 1 1 0 0 0 0 0 0 0 1 1 1 1 1 1 1 1 1 1
-1 -0 -0 -0 -0 -0 -1 -1 -1 -1 -1 -1 -1 -1 -1 -1 -1 -1 -1 -0 -0 -0 -1 -1 -1 -1 -1 -1 -0 -0 -0 0 0 0 0 0 0 0 -0 -0 -0 -0 -1 -1 -1 -1 -1 -0 -1 -1 -2 -2 -2 -2 -1 -1 -0 -0 -0 -0 -0 -0 -0 -0 -1 -1 -0 -0 -0 0 -0 -0 -0 -0 -0 -0 0 1 1 1 0 0 0 1 1 1 1 0 0 -0 -0 -0 -0 0 0 1 1 1 1 1 1 1 1
-1 -1 -1 -0 -0 -0 -0 -0 -0 -1 -1 -1 -1 -1 -0 -0 -0 -0 -0 -0 -0 -0 -1 -1 -1 -1 -1 -1 -1 -0 -0 0 0 -0 -0 -0 0 0 0 -0 -0 -0 -0 -1 -1 -1 -1 -0 -0 -1 -2 -2 -2 -2 -1 -1 -1 -0 -0 -0 -0 -0 -0 -0 -0 -1 -1 -0 -0 -0 0 -0 -0 -0 -0 -0 -0 -0 0 1 1 0 0 0 1 1 1 1 0 0 -0 -0 -0 -0 -0 0 1 1 1 1 1 1 1
-1 -1 -1 -1 -0 -0 -0 -0 -0 -0 -0 -1 -1 -1 -0 -0 -0 -0 -0 -0 -0 -0 -0 -1 -1 -1 -1 -1 -1 -1 -1 -0 -0 -0 -0 0 0 0 0 0 -0 0 -0 -1 -1 -1 -1 -0 -0 -1 -1 -1 -2 -2 -2 -1 -1 -0 -0 0 0 -0 -0 -0 -0 -0 -0 -0 -0 -0 -0 0 0 0 -0 -0 -0 -0 -0 0 0 0 0 0 0 0 1 1 1 0 -0 -0 -0 -0 -0 -0 0 0 1 1 1 1 1
-1 -1 -1 -1 -0 -0 -0 -0 -0 -0 -0 -0 -0 -0 -0 -0 -0 -0 -0 -0 -0 -0 -0 -0 -0 -1 -1 -1 -1 -1 -0 -0 -0 -0 -0 -0 0 1 1 0 0 0 0 -0 -1 -1 -1 -0 -0 -0 -1 -1 -1 -1 -2 -2 -2 -1 -1 -0 -0 -0 0 -0 -0 -0 -0 -0 -0 -0 -0 -0 -0 0 0 -0 -0 -0 -0 -0 0 0 0 -0 -0 -0 0 1 1 1 1 -0 -0 -1 -1 -0 -0 -0 0 1 1 1 1
-1 -1 -1 -1 -1 -0 -0 -0 -0 -0 -0 -0 -0 -0 -0 -0 -0 -0 -0 -0 -0 -0 -0 -0 -0 -0 -1 -1 -1 -0 -0 0 0 0 0 -0 0 1 1 0 0 0 0 -0 -0 -0 -0 -0 -0 -0 -1 -1 -1 -1 -2 -2 -2 -2 -2 -1 -1 -0 -0 0 0 0 -0 -0 -0 -0 -0 -0 -0 -0 -0 -0 -0 -0 -0 -0 -0 -0 -0 -0 -0 -0 -0 0 1 1 1 1 0 -0 -1 -1 -1 -0 0 0 1 1 1
-1 -1 -1 -1 -1 -1 -0 -0 -0 -0 -0 -0 0 0 -0 0 0 0 0 0 -0 -0 0 0 0 -0 -0 -0 -0 -0 -0 0 1 1 0 0 -0 0 0 0 0 0 0 0 0 0 0 -0 -0 -1 -1 -1 -1 -1 -1 -2 -2 -2 -2 -2 -2 -1 -1 -0 0 0 0 0 0 -0 -0 -0 -0 -1 -1 -1 -0 -0 -1 -1 -1 -1 -1 -0 -0 -0 -0 -0 0 1 1 1 1 0 -0 -1 -1 -0 -0 0 0 1 1
-1 -1 -1 -1 -1 -1 -1 -1 -0 -0 -1 -0 -0 0 -0 0 0 0 0 0 -0 -0 0 0 -0 -0 -0 -0 -0 -0 -0 -0 0 1 1 0 0 -0 -0 -0 -0 0 0 0 1 1 0 -0 -0 -1 -1 -1 -1 -1 -1 -1 -2 -2 -2 -2 -2 -2 -2 -1 -0 -0 -0 0 0 0 0 0 0 -0 -1 -1 -1 -2 -2 -2 -1 -1 -0 -0 -0 -0 -0 -1 -1 -0 0 1 1 0 0 -0 -0 -1 -0 -0 0 1 1
-2 -2 -2 -2 -2 -2 -2 -1 -1 -1 -1 -1 -1 -0 -0 -0 -0 -0 -0 -0 -0 -0 0 0 -0 -0 -0 -0 -0 -0 -0 -0 -0 -0 0 1 1 0 -0 -1 -0 -0 -0 0 1 1 1 1 -0 -1 -1 -1 -1 -1 -1 -1 -1 -2 -2 -2 -2 -2 -2 -2 -1 -1 -0 -0 0 0 0 0 1 1 0 -0 -1 -2 -2 -2 -1 -0 -0 -0 -0 -0 -0 -1 -1 -1 -1 -0 0 0 0 0 -0 -0 -0 -0 -0 0 0
-2 -2 -2 -2 -2 -2 -2 -2 -2 -2 -2 -1 -1 -1 -1 -1 -1 -1 -1 -1 -0 -0 -0 -0 -1 -1 -0 -0 -0 -0 -0 -0 -0 -0 -0 -0 0 0 0 -0 -0 -0 -0 0 0 1 1 1 1 -0 -1 -1 -1 -0 -0 -0 -1 -1 -1 -1 -2 -2 -2 -2 -2 -2 -1 -0 -0 0 0 0 0 1 1 0 -0 -1 -2 -2 -0 0 -0 -1 -0 -0 -0 -0 -1 -1 -1 -0 -0 0 0 0 0 -0 -0 -0 -0 -0 0
-2 -2 -2 -2 -2 -2 -2 -2 -2 -2 -2 -2 -1 -1 -1 -1 -1 -1 -1 -1 -1 -0 -0 -1 -1 -1 -0 -0 -1 -1 -1 -1 -1 -1 -1 -0 -0 -0 -0 -0 -0 -0 -0 -0 -0 0 1 1 1 1 0 -0 -0 0 -0 -0 -0 -0 -1 -1 -1 -1 -2 -2 -2 -2 -2 -1 -0 -0 -0 -0 -0 -0 0 1 0 -0 -2 -1 -0 0 -0 -1 -0 0 0 -0 -0 -0 -1 -1 -0 -0 0 0 0 0 -0 -0 -0 -0 -0
-1 -1 -1 -1 -1 -1 -1 -1 -1 -1 -1 -1 -1 -1 -0 -1 -1 -1 -1 -1 -1 -0 -1 -1 -1 -1 -0 -0 -1 -1 -1 -1 -1 -1 -1 -0 -0 -0 -0 -1 -1 -1 -1 -1 -1 -0 -0 -0 0 1 1 1 1 0 0 1 0 -0 -1 -1 -0 -1 -1 -2 -2 -2 -2 -1 -1 -0 -0 -0 -0 -0 -0 -0 -0 -0 -1 -1 -1 0 0 0 0 -0 0 0 -0 -0 -0 -0 -0 -0 -0 0 0 0 0 -0 -0 -0 -0
-0 -0 -1 -1 -1 -1 -1 -0 -0 -0 -1 -1 -0 -0 -0 -0 -0 -0 -0 -0 -1 -1 -1 -1 -1 -1 -0 0 -0 -0 -1 -0 -0 -0 -1 -1 -0 -0 -0 -1 -1 -1 -1 -1 -1 -1 -0 -0 -0 0 0 1 1 1 1 1 1 0 -0 -1 -0 -0 -0 -1 -2 -2 -2 -1 -1 -1 -0 -0 -0 -0 -0 -0 -1 -1 -1 -1 -1 -1 0 1 0 -1 -0 -0 0 0 0 -0 -0 -1 -1 -0 0 0 0 0 0 -0 -0
0 -0 -0 -0 -0 -0 -0 -0 -0 -0 -0 -0 -0 -0 0 0 -0 -1 -0 -0 -0 -1 -1 -1 -1 -1 -0 0 0 -0 -1 -0 -0 -0 -1 -1 -1 -1 -0 -0 -0 -0 -0 -1 -1 -1 -0 0 0 -0 -1 -0 -0 0 1 1 1 1 0 -0 -0 -0 -0 -1 -1 -1 -1 -1 -1 -1 -1 -1 -1 -0 0 -0 -1 -1 -1 -1 -1 -1 -0 -0 -0 -1 -1 -1 -0 0 0 0 -0 -0 -1 -1 -0 -0 0 1 0 0 -0
0 -0 -0 -0 -0 -0 -0 -0 -0 0 0 0 0 0 0 1 0 -0 -1 -0 -0 -0 -1 -1 -1 -1 -1 -0 0 0 -1 -0 0 0 -1 -1 -1 -1 0 0 0 -0 -0 -1 -1 -0 0 -0 -0 -1 -1 -1 -1 -0 0 1 1 1 1 -0 -0 -1 -1 -1 -1 -1 -0 -0 -0 -1 -1 -1 -1 -0 0 -0 -0 -1 -1 -1 -1 -1 -1 -0 -0 -0 -1 -1 -1 -1 0 0 0 0 -0 -1 -1 -0 -0 0 0 0 0
-0 -0 -0 -0 -0 -0 -0 -0 -0 0 1 1 1 0 0 1 1 0 -0 -0 -0 -0 -0 -1 -1 -1 -1 -0 -0 -0 -1 -0 0 0 -0 -1 -1 -1 -0 0 0 -0 -1 -1 -1 -0 0 0 -0 -1 -1 -2 -1 -1 -0 1 1 1 1 0 -0 -1 -1 -1 -1 -0 0 1 0 -0 -1 -2 -2 -1 -0 -0 -0 -1 -1 -1 -1 -1 -1 -0 0 0 -0 -1 -1 -1 -1 -0 0 0 0 -0 -1 -1 -1 -0 0 0 1
-0 -0 -0 -0 -0 -0 -0 0 1 1 2 2 1 0 -0 1 1 1 1 1 0 -0 0 -0 -1 -1 -1 -1 -0 -1 -1 -1 -0 -0 -0 -1 -1 -1 -1 -0 0 -0 -1 -1 -0 -0 0 0 0 -0 -1 -2 -2 -2 -1 0 1 1 1 1 1 -0 -1 -1 -1 -0 0 1 1 1 -0 -1 -1 -1 -1 -1 -0 -1 -1 -1 -1 -1 -1 -1 -0 -0 0 -0 -1 -1 -1 -1 -0 0 0 -0 -0 -1 -1 -1 -0 -0 0
-0 -0 -0 -0 -0 -0 0 1 1 2 2 2 2 1 0 0 0 0 1 1 0 0 0 0 -0 -0 -0 -0 -0 -0 -0 -1 -1 -1 -0 -0 -1 -1 -2 -0 -0 -0 -1 -1 -0 -0 0 1 1 0 -0 -1 -2 -2 -1 -0 0 1 2 2 2 1 -1 -1 -1 -0 -0 0 1 1 1 0 -1 -1 -1 -1 -1 -1 -1 -1 -1 -1 -1 -1 -0 -0 -0 0 -0 -1 -1 -1 -1 -0 -0 -0 -0 -0 -1 -1 -1 -0 -0
-0 -0 -0 -0 0 0 1 1 1 2 2 2 2 1 0 -0 -0 0 0 0 -0 -0 0 0 0 0 1 0 0 0 0 -0 -0 -0 -0 -0 -0 -1 -1 -1 -1 -1 -0 -0 -0 -0 0 1 1 1 0 -0 -2 -2 -2 -1 -0 1 2 2 3 2 0 -1 -1 -1 -0 -0 1 1 1 1 0 -0 -1 -1 -1 -1 -1 -1 -1 -1 -1 -0 -0 0 0 0 0 -0 -1 -0 -0 -0 -0 -1 -1 -1 -1 -0 -0 -0 -0
-0 -0 -0 -0 0 1 1 1 1 2 2 2 2 1 0 -0 -0 -0 0 -0 -0 -0 -0 0 1 1 1 1 0 0 0 -0 -0 0 1 0 -0 -0 -0 -1 -1 -1 -1 -1 -1 -0 -0 1 1 1 1 -0 -1 -2 -2 -2 -1 -0 1 2 2 2 2 0 -1 -1 -1 -0 0 1 1 2 1 1 -0 -1 -1 -2 -2 -1 -1 -1 -1 -0 0 0 1 1 1 1 0 1 1 1 -0 -1 -2 -2 -1 -1 -0 -0 -0
-1 -1 -0 -0 -0 0 0 0 1 1 1 1 1 1 1 0 -0 -0 -0 -0 -0 -0 -1 0 1 1 0 1 1 0 -0 -0 -0 0 1 1 0 -0 0 -0 -1 -1 -1 -1 -1 -1 -0 0 1 1 1 0 -0 -1 -2 -2 -1 -0 0 1 1 2 2 2 1 -0 -1 -1 -0 1 1 1 1 1 0 -0 -1 -2 -2 -2 -2 -1 -1 -1 -0 0 1 2 2 1 0 1 1 1 0 -1 -2 -2 -2 -1 -1 -0 -0
-1 -1 -1 -1 -0 -0 -1 -0 0 1 1 0 0 0 0 -0 -0 -0 -0 -0 -0 -0 -1 -0 0 0 0 1 1 0 -0 -0 -0 -0 -0 0 0 0 1 -0 -0 -0 -0 -0 -0 -0 0 0 0 1 1 1 0 -0 -1 -1 -0 0 0 0 0 1 1 2 2 1 -0 -1 -0 0 1 1 1 1 1 0 -0 -1 -2 -2 -2 -2 -2 -1 -1 -0 1 1 2 2 1 1 1 1 1 -0 -1 -1 -2 -1 -1 -1 -1
-1 -1 -1 -1 -1 -1 -1 -1 -0 0 -0 -0 -1 -0 -0 -1 -1 -0 -0 -0 -0 -1 -0 -0 -0 -0 0 1 0 0 0 0 -0 -1 -1 -0 0 1 1 0 0 0 0 -0 0 1 1 0 0 1 0 1 1 0 -0 0 1 1 0 -0 -0 0 1 2 2 2 1 0 0 0 0 1 1 1 2 2 1 0 -0 -1 -2 -2 -2 -2 -1 -1 -0 1 1 2 2 2 1 1 1 1 0 -0 -0 -0 -1 -1 -1
-1 -1 -1 -1 -1 -1 -2 -1 -1 -0 -1 -1 -2 -1 -1 -1 -1 -1 -1 -1 -1 -0 -0 -0 -0 -0 0 0 1 1 1 1 -0 -1 -1 -0 0 0 0 1 1 1 0 0 0 1 1 1 1 1 1 1 1 -0 0 1 2 1 1 0 -0 0 1 2 2 2 1 1 1 1 1 0 1 2 3 3 3 2 1 -0 -1 -2 -2 -2 -2 -2 -1 -0 0 1 2 2 2 2 2 1 1 1 1 1 1 -0 -1
-1 -1 -1 -2 -2 -2 -2 -1 -1 -1 -2 -2 -2 -2 -2 -1 -1 -1 -1 -1 -1 -0 -0 -0 -1 -0 -0 0 1 1 1 2 1 -0 -1 -0 -0 -0 0 1 1 1 1 1 1 0 -0 0 0 1 1 0 -0 -0 0 1 1 1 1 0 0 1 1 2 2 2 2 2 1 1 2 1 2 2 3 4 3 3 2 1 0 -0 -1 -1 -2 -2 -2 -1 -1 0 1 1 2 2 2 2 1 1 1 1 2 1 0
-1 -2 -2 -2 -3 -3 -2 -2 -2 -2 -2 -2 -2 -2 -2 -1 -1 -1 -1 -1 -1 -1 -1 -1 -1 -1 -1 -0 1 1 1 2 2 1 0 0 0 -0 0 0 1 1 1 2 1 1 0 -0 -0 -0 -0 -0 0 1 0 1 1 1 0 0 0 1 1 2 2 2 2 2 1 1 2 2 3 3 3 3 3 2 2 2 2 2 1 0 -0 -1 -2 -2 -1 -1 -0 1 1 2 2 2 2 1 1 1 2 3 2
-2 -2 -2 -3 -3 -3 -3 -2 -2 -1 -2 -2 -2 -2 -2 -1 -1 -1 -1 -1 -1 -1 -2 -1 -1 -2 -2 -1 -1 -0 0 1 1 1 1 0 0 0 0 0 0 0 1 1 1 1 1 0 -0 -0 -0 0 1 1 0 0 0 1 0 -0 -0 -0 1 2 2 3 3 2 1 1 1 2 4 4 4 2 1 1 1 2 3 4 3 2 1 0 -1 -1 -1 -1 -1 -0 1 1 2 3 3 2 1 1 1 3 4
-2 -3 -3 -3 -3 -3 -3 -2 -1 -1 -1 -1 -1 -1 -2 -2 -1 -1 -1 -1 -2 -2 -3 -2 -2 -2 -2 -2 -2 -1 -1 -1 -0 0 0 0 0 -0 0 0 -0 -0 -0 1 1 1 1 1 0 0 -0 1 1 1 0 -0 0 0 1 -0 -1 -1 -0 1 1 2 3 2 1 0 0 2 3 4 4 2 1 0 0 1 3 4 4 4 3 1 0 -0 -1 -1 -1 -1 -0 1 2 3 3 3 3 2 1 2 4
-2 -2 -2 -2 -2 -2 -2 -2 -1 -1 -1 -1 -2 -2 -2 -2 -2 -2 -2 -1 -2 -3 -3 -3 -2 -2 -2 -3 -3 -3 -2 -2 -2 -1 -1 -0 -0 -0 -0 -0 -0 -1 -1 -0 0 1 1 1 0 -0 -0 1 1 1 0 0 -0 -0 -0 -0 -0 -1 -1 -0 0 1 2 1 1 0 0 1 2 3 3 2 1 0 0 1 1 2 3 3 3 2 1 0 -0 -1 -1 -1 -0 0 1 2 3 4 4 4 3 2 2
-2 -2 -2 -2 -2 -2 -2 -2 -2 -2 -2 -2 -2 -2 -3 -3 -3 -3 -3 -2 -2 -2 -3 -3 -3 -2 -2 -3 -3 -4 -3 -3 -2 -2 -2 -2 -2 -2 -2 -1 -1 -1 -1 -1 -0 0 1 0 -0 -0 -0 0 0 0 1 0 -0 -1 -1 -1 -1 -1 -1 -1 -0 -0 -0 -0 -0 -0 1 1 2 2 2 2 1 1 1 1 1 1 1 2 2 2 2 1 0 -0 -0 -0 -0 -0 0 1 2 3 4 4 4 3 2
-1 -2 -2 -2 -2 -2 -3 -2 -2 -2 -2 -2 -2 -2 -3 -3 -3 -3 -3 -3 -2 -2 -3 -3 -4 -3 -3 -3 -3 -4 -4 -4 -3 -3 -3 -3 -3 -3 -3 -3 -2 -1 -2 -2 -1 -0 -0 -0 -1 -1 -1 -1 -0 -0 0 -0 -1 -1 -1 -2 -1 -1 -2 -1 -1 -1 -2 -2 -2 -1 0 1 1 1 1 1 1 1 1 1 1 0 -0 -0 0 1 1 1 1 1 1 1 0 0 0 0 1 2 3 4 4 4 4
-1 -1 -2 -2 -2 -2 -3 -2 -2 -1 -1 -1 -2 -2 -3 -3 -4 -4 -4 -3 -3 -3 -2 -3 -3 -4 -4 -3 -3 -3 -4 -4 -4 -4 -5 -4 -3 -2 -3 -4 -4 -3 -2 -2 -2 -1 -1 -1 -2 -2 -1 -1 -1 -0 -1 -1 -1 -1 -1 -2 -1 -1 -2 -2 -2 -2 -2 -3 -3 -2 -2 -0 1 1 1 -0 -0 -0 1 1 1 0 -0 -0 -0 -0 0 1 1 2 2 2 1 1 1 1 1 1 1 2 3 4 4
-1 -1 -1 -1 -2 -2 -2 -2 -1 -1 -1 -1 -1 -2 -3 -3 -4 -4 -4 -3 -3 -3 -3 -2 -3 -4 -4 -4 -4 -3 -3 -4 -4 -4 -4 -5 -4 -3 -3 -4 -4 -4 -2 -2 -2 -2 -1 -2 -3 -3 -2 -2 -2 -2 -2 -2 -1 -1 -1 -1 -1 -1 -2 -2 -2 -3 -2 -3 -3 -3 -2 -2 -1 -0 0 -0 -1 -1 -0 0 1 1 1 0 -0 -0 0 1 1 2 2 2 2 2 2 2 1 1 0 1 2 3 4
-1 -1 -1 -1 -1 -2 -2 -2 -1 -1 -0 -0 -1 -2 -2 -2 -3 -3 -3 -3 -3 -3 -3 -2 -2 -2 -4 -5 -5 -4 -3 -4 -4 -4 -3 -3 -5 -6 -5 -3 -4 -4 -3 -2 -1 -2 -3 -2 -2 -2 -1 -2 -3 -3 -3 -2 -1 -1 -0 0 -0 -1 -0 -1 -2 -3 -2 -2 -2 -2 -2 -3 -2 -2 -1 -1 -1 -1 -1 0 1 1 2 2 1 1 1 1 1 1 2 2 2 2 2 2 2 1 1 1 1 2 2
-2 -2 -2 -2 -2 -2 -2 -2 -1 -1 -1 -1 -1 -1 -2 -2 -2 -2 -3 -3 -2 -2 -2 -3 -2 -1 -0 -4 -6 -5 -4 -4 -3 -2 -5 -3 -3 -4 -7 -5 -4 -3 -2 -1 -0 -0 -1 -1 -1 -2 -2 -3 -3 -3 -2 -1 -1 -1 -1 -0 -0 -1 0 -0 -1 -1 -1 -2 -2 -2 -2 -3 -3 -3 -2 -2 -1 -1 -1 -0 1 2 3 3 2 2 1 1 1 1 1 1 2 2 2 2 2 2 1 1 1 1 1
-2 -2 -3 -3 -3 -2 -2 -2 -2 -2 -1 -2 -2 -2 -1 -2 -2 -2 -1 -2 -2 -1 0 -2 -4 -3 1 -1 -4 -6 -3 -5 -3 -0 -3 -7 -4 -2 -4 -5 -4 -2 -3 -2 -1 -0 3 2 1 -0 -3 -4 -3 -2 -1 0 0 -0 -1 -1 -0 -0 0 -0 -0 0 0 -1 -1 -1 -1 -2 -2 -2 -2 -2 -2 -2 -2 -0 1 2 3 3 3 3 2 2 2 2 2 2 2 1 1 1 1 1 2 2 2 1 1
-3 -3 -4 -4 -4 -3 -3 -2 -2 -2 -2 -2 -3 -3 -2 -2 -2 -2 -1 -1 -2 -1 0 0 -2 -4 -3 0 -2 -4 -2 -4 -3 -2 1 -6 -7 -5 -2 -1 -2 -4 -3 -2 -4 -3 3 1 2 3 1 0 0 0 -1 -1 -1 -2 -2 -1 -0 -0 0 -0 0 1 2 1 1 1 1 1 0 -0 -0 -1 -2 -2 -2 -1 -0 0 2 3 3 4 3 3 3 3 3 3 2 2 1 1 1 1 2 2 2 2 2
-3 -4 -4 -4 -4 -4 -3 -3 -3 -3 -2 -2 -2 -3 -4 -2 -2 -2 -2 -1 -1 -1 -1 0 1 -0 -5 -2 -1 -2 -5 -2 -3 -4 -1 -2 -5 -7 -8 1 -1 -5 -3 1 -3 -6 1 -2 -4 -3 3 6 6 4 3 1 -2 -3 -2 -2 -1 -1 -1 -1 -1 0 2 2 2 3 3 2 2 2 2 1 -0 -2 -3 -2 -2 -1 -0 1 2 4 4 5 5 4 4 4 3 3 2 2 2 2 2 2 3 3 3
-2 -2 -2 -3 -3 -3 -2 -2 -3 -3 -2 -1 -1 -2 -3 -2 -2 -2 -1 -1 -1 -1 -1 -2 1 3 -0 -3 -2 -1 -5 -3 -2 -3 -4 -2 -0 -1 -9 -5 -4 -4 -4 3 1 -4 -6 -2 -4 -7 -6 3 5 4 4 6 3 0 0 -1 -2 -2 -2 -2 -2 -1 1 1 1 2 2 2 2 3 4 3 2 1 -1 -2 -2 -2 -2 -0 1 3 4 5 5 5 4 4 4 3 3 3 2 2 2 2 3 3 3
-1 -1 -1 -1 -1 -1 -2 -2 -2 -2 -2 -1 -0 -0 -1 -1 -1 -1 -0 -1 -1 -1 0 -2 -1 2 5 -1 -2 -2 -2 -5 -3 -1 -3 -5 -0 3 -3 -6 -6 -4 -5 0 2 -1 -8 -4 -2 -2 -6 -1 -0 -1 0 4 4 3 3 2 -0 -1 -2 -3 -2 -2 -2 -2 -1 0 0 -0 0 1 2 2 2 2 1 -0 -1 -2 -2 -1 -1 1 2 3 4 4 4 4 4 4 3 3 2 2 2 1 2 2 3
-1 -1 -1 -0 -0 -1 -1 -1 -1 -1 -1 -0 0 0 -0 -0 -0 -0 -0 -0 -1 -1 0 -0 -1 -1 3 3 -0 -3 -2 -6 -5 -3 1 -4 -3 -0 2 1 -1 -3 -4 -4 -4 -3 -5 -2 0 -0 -7 -1 -1 -4 -5 -2 0 1 2 2 2 1 -1 -2 -2 -2 -3 -3 -2 -2 -2 -1 -1 -1 -1 -0 0 1 1 1 0 -1 -1 -2 -2 -1 -0 1 2 3 3 4 4 4 4 3 3 2 1 0 -0 -0 0
-1 -1 -1 -1 -1 -1 -1 -1 -1 -1 -1 -1 -0 0 -0 -0 -0 -0 -1 -1 -1 -2 -1 0 -1 -2 -2 2 2 -1 -2 -5 -6 -5 1 -1 -2 -2 1 2 2 1 2 -3 -4 -5 -8 -0 3 1 -11 -3 -0 -1 -5 -4 -2 -0 1 0 1 1 -0 -1 -1 -1 -2 -2 -2 -3 -4 -3 -2 -2 -3 -1 -1 -1 -0 1 0 -1 -1 -2 -2 -2 -1 -0 -0 1 1 3 4 5 5 5 4 3 1 -0 -2 -2 -2
-1 -1 -2 -2 -2 -1 -1 -1 -1 -1 -1 -1 -0 0 -0 -0 -0 -0 -1 -1 -1 -2 -2 -0 -0 -1 -4 -1 1 1 -1 -2 -4 -5 -2 1 1 -0 -0 -0 0 1 2 -1 -1 -1 -6 -3 -1 -2 -7 -4 -3 -2 1 -2 -2 -1 1 0 0 0 0 -0 -1 -1 -1 -1 -2 -2 -3 -2 -2 -2 -3 -1 -1 -0 0 0 -0 -1 -1 -2 -2 -2 -2 -2 -1 -1 -0 1 3 4 5 6 6 5 4 1 -1 -3 -3
-2 -2 -2 -2 -2 -2 -2 -2 -2 -2 -2 -2 -1 -0 -0 -1 -1 -1 -1 -1 -1 -1 -1 -1 -1 -1 -2 -2 -0 1 -0 -1 -2 -2 -2 -0 -0 -0 1 -0 -0 -0 -1 -2 -1 -0 -0 -1 -5 -6 -1 -1 -3 -4 -1 -0 -0 -0 0 1 1 1 1 1 1 -0 -2 -2 -2 -2 -2 -1 -1 -0 -1 -0 -0 1 1 1 1 0 -1 -1 -1 -1 -2 -2 -2 -1 -1 -0 1 2 4 4 6 6 7 5 2 -1 -3
-3 -3 -3 -3 -3 -3 -3 -3 -2 -2 -2 -2 -1 -1 -0 -2 -2 -2 -1 -2 -1 -1 0 -1 -2 -2 -1 -1 -0 1 1 -1 -1 0 2 0 -2 -3 1 0 -0 -1 -1 -2 -2 -2 -1 -1 -3 -4 -2 -1 -0 1 1 -0 -1 -0 0 0 0 0 2 2 2 1 -1 -1 -2 -2 -1 -1 -0 0 0 0 1 1 2 2 2 1 0 -1 -1 -1 -2 -2 -2 -1 -1 -1 0 1 2 3 4 6 7 7 6 3 0
-3 -3 -3 -3 -3 -3 -3 -2 -2 -3 -3 -2 -2 -2 -2 -2 -3 -2 -1 -2 -2 -2 -1 -1 -2 -2 -2 -1 -0 1 1 1 0 -0 2 1 -1 -4 -2 -0 -1 -2 -1 -2 -2 -2 -2 -2 -2 -1 -1 -1 0 3 5 3 1 -0 -0 -1 -1 -0 2 2 2 1 1 -0 -1 -2 -2 -2 -1 -1 -0 0 1 1 2 2 2 1 0 -0 -1 -1 -2 -2 -1 -1 -1 -0 0 1 1 2 2 3 5 6 7 6 4
Height
5887 5887 5887 5888 5888 5888 5888 5888 5888 5888 5888 5888 5888 5889 5889 5889 5889 5889 5889 5889 5889 5890 5890 5890 5890 5890 5890 5890 5889 5889 5889 5889 5888 5888 5888 5888 5888 5888 5888 5887 5887 5887 5887 5887 5888 5888 5888 5888 5888 5888 5888 5887 5887 5887 5886 5886 5886 5885 5885 5885 5885 5884 5884 5884 5884 5884 5884 5883 5883 5883 5883 5882 5882 5881 5881 5881 5881 5881 5881 5880 5880 5880 5880 5880 5879 5879 5879 5878 5878 5878 5877 5877 5877 5876 5876 5876 5875 5875 5875 5875 5874 5874 5874
5886 5886 5886 5886 5887 5887 5887 5887 5887 5887 5887 5887 5887 5887 5887 5888 5888 5888 5888 5888 5888 5888 5888 5888 5888 5889 5889 5888 5888 5888 5888 5887 5887 5887 5887 5887 5886 5886 5886 5886 5886 5886 5886 5886 5886 5886 5886 5886 5886 5886 5886 5886 5886 5886 5885 5885 5885 5884 5884 5884 5883 5883 5883 5883 5882 5882 5882 5882 5882 5882 5881 5881 5881 5880 5880 5880 5880 5880 5880 5880 5879 5879 5879 5879 5878 5878 5878 5877 5877 5877 5876 5876 5876 5875 5875 5875 5875 5874 5874 5874 5873 5873 5873
5885 5885 5885 5885 5885 5886 5886 5886 5886 5886 5886 5886 5886 5886 5886 5886 5886 5886 5886 5886 5886 5886 5887 5887 5887 5887 5887 5887 5887 5886 5886 5886 5886 5886 5885 5885 5885 5885 5885 5885 5885 5884 5884 5884 5884 5885 5885 5885 5885 5885 5885 5885 5885 5885 5884 5884 5883 5883 5883 5882 5882 5882 5881 5881 5881 5881 5881 5880 5880 5880 5880 5880 5880 5880 5879 5879 5879 5878 5878 5878 5878 5878 5878 5878 5877 5877 5877 5876 5876 5876 5875 5875 5875 5875 5874 5874 5874 5874 5873 5873 5872 5872 5872
5884 5884 5885 5885 5885 5885 5885 5885 5885 5885 5885 5885 5885 5885 5885 5885 5885 5885 5885 5886 5885 5885 5885 5885 5885 5885 5885 5885 5885 5885 5885 5885 5885 5884 5884 5884 5884 5884 5884 5883 5883 5883 5883 5882 5882 5883 5883 5883 5883 5883 5883 5883 5883 5883 5883 5882 5882 5882 5881 5881 5881 5880 5880 5880 5880 5879 5879 5879 5879 5879 5879 5879 5879 5878 5878 5878 5878 5877 5877 5877 5877 5877 5877 5876 5876 5876 5876 5875 5875 5875 5875 5874 5874 5874 5873 5873 5873 5872 5872 5872 5871 5871 5871
5883 5883 5884 5884 5884 5883 5884 5883 5884 5884 5884 5884 5884 5884 5884 5884 5884 5884 5884 5884 5884 5884 5885 5884 5884 5884 5884 5884 5884 5884 5884 5884 5883 5883 5883 5883 5882 5882 5882 5882 5882 5881 5881 5881 5881 5881 5881 5881 5881 5881 5881 5881 5881 5881 5881 5881 5880 5880 5880 5880 5879 5879 5879 5878 5878 5878 5878 5877 5878 5877 5877 5877 5877 5877 5877 5877 5876 5876 5876 5876 5875 5875 5875 5875 5875 5875 5875 5875 5874 5874 5874 5873 5873 5873 5872 5872 5872 5871 5871 5871 5870 5870 5870
5881 5882 5883 5883 5882 5882 5882 5882 5882 5882 5882 5883 5883 5883 5883 5883 5883 5883 5883 5884 5884 5883 5883 5882 5882 5882 5882 5882 5882 5882 5882 5882 5882 5881 5881 5881 5881 5880 5880 5880 5880 5880 5879 5879 5879 5879 5879 5879 5880 5880 5880 5880 5880 5880 5879 5879 5879 5879 5878 5878 5878 5877 5877 5877 5877 5876 5876 5876 5876 5876 5875 5875 5875 5875 5875 5875 5875 5875 5875 5875 5874 5874 5874 5874 5874 5874 5874 5873 5873 5873 5872 5872 5872 5871 5871 5871 5870 5870 5870 5870 5870 5869 5869
5880 5880 5880 5881 5881 5881 5881 5881 5881 5881 5881 5881 5881 5881 5881 5881 5881 5881 5881 5882 5882 5881 5882 5881 5881 5881 5881 5881 5881 5881 5881 5881 5880 5880 5880 5880 5879 5879 5879 5879 5879 5878 5878 5877 5877 5877 5877 5878 5878 5878 5878 5878 5878 5878 5878 5877 5877 5877 5877 5876 5876 5876 5875 5875 5875 5875 5875 5875 5874 5874 5875 5874 5874 5874 5874 5874 5874 5873 5873 5873 5873 5873 5873 5872 5872 5872 5872 5872 5872 5871 5871 5871 5871 5870 5870 5870 5870 5869 5869 5869 5868 5868 5868
5879 5879 5879 5880 5880 5880 5880 5880 5880 5880 5880 5880 5880 5880 5880 5880 5880 5880 5880 5880 5880 5880 5880 5880 5880 5880 5880 5880 5880 5879 5879 5879 5879 5879 5878 5878 5878 5877 5877 5877 5877 5876 5876 5876 5875 5875 5875 5876 5876 5876 5876 5876 5876 5876 5876 5876 5876 5875 5875 5875 5875 5874 5874 5874 5874 5874 5873 5873 5873 5873 5873 5874 5873 5872 5872 5872 5872 5872 5872 5872 5871 5871 5871 5871 5871 5871 5870 5870 5870 5870 5870 5870 5870 5869 5869 5869 5868 5868 5868 5867 5867 5867 5867
5878 5878 5878 5878 5878 5879 5879 5879 5879 5879 5879 5879 5879 5879 5879 5879 5879 5879 5879 5879 5879 5879 5879 5879 5878 5878 5878 5878 5878 5878 5878 5878 5878 5877 5877 5877 5876 5876 5876 5876 5875 5875 5875 5874 5874 5874 5874 5874 5874 5874 5875 5875 5875 5874 5874 5874 5874 5874 5874 5873 5873 5873 5873 5872 5872 5872 5872 5872 5871 5871 5871 5871 5871 5871 5870 5870 5870 5870 5870 5870 5870 5870 5870 5870 5869 5869 5869 5869 5869 5869 5869 5868 5868 5868 5868 5867 5867 5867 5866 5866 5866 5866 5865
5876 5877 5877 5877 5877 5877 5877 5877 5878 5878 5878 5878 5878 5878 5878 5878 5878 5878 5878 5878 5878 5878 5877 5877 5877 5877 5877 5877 5877 5877 5877 5876 5876 5876 5876 5875 5875 5875 5875 5874 5874 5874 5873 5873 5872 5872 5872 5872 5872 5872 5873 5873 5873 5873 5873 5872 5872 5872 5872 5871 5871 5871 5871 5871 5871 5870 5870 5870 5870 5870 5870 5869 5869 5869 5869 5869 5869 5869 5869 5869 5868 5868 5868 5868 5868 5868 5868 5867 5867 5867 5867 5867 5867 5866 5866 5866 5866 5865 5865 5865 5865 5865 5864
5875 5875 5876 5876 5876 5876 5876 5876 5876 5876 5876 5876 5876 5876 5876 5876 5876 5876 5876 5876 5876 5876 5876 5876 5876 5876 5875 5875 5875 5875 5875 5875 5875 5875 5875 5874 5874 5874 5873 5873 5873 5872 5872 5872 5871 5871 5870 5870 5870 5871 5871 5871 5871 5871 5871 5871 5871 5870 5870 5870 5870 5870 5869 5869 5869 5869 5869 5869 5869 5868 5868 5868 5868 5868 5868 5867 5867 5867 5867 5867 5867 5867 5866 5866 5866 5866 5866 5866 5866 5866 5865 5865 5865 5865 5865 5865 5865 5865 5864 5864 5864 5863 5863
5874 5874 5875 5875 5875 5875 5875 5875 5875 5875 5875 5875 5875 5875 5875 5875 5875 5875 5875 5875 5875 5875 5875 5875 5875 5875 5874 5874 5874 5874 5874 5874 5874 5874 5874 5873 5873 5872 5872 5872 5872 5871 5871 5870 5870 5870 5869 5869 5869 5869 5869 5869 5870 5870 5870 5869 5869 5869 5869 5868 5868 5868 5868 5868 5867 5867 5867 5867 5867 5867 5867 5866 5866 5866 5867 5866 5865 5865 5865 5865 5865 5865 5865 5865 5865 5865 5864 5864 5864 5864 5864 5864 5864 5864 5864 5864 5863 5863 5863 5863 5862 5862 5862
5873 5873 5873 5873 5873 5873 5873 5873 5873 5873 5873 5873 5873 5873 5873 5873 5873 5873 5873 5873 5873 5873 5873 5873 5873 5873 5873 5873 5873 5873 5873 5873 5873 5872 5872 5872 5872 5871 5871 5870 5870 5870 5870 5869 5869 5868 5868 5867 5867 5867 5867 5868 5868 5868 5868 5868 5868 5867 5867 5867 5866 5866 5866 5866 5866 5866 5865 5865 5865 5865 5865 5865 5865 5865 5865 5865 5864 5864 5864 5864 5863 5863 5863 5863 5863 5863 5863 5863 5863 5862 5862 5862 5862 5862 5862 5862 5862 5861 5861 5861 5861 5861 5860
5872 5872 5872 5872 5872 5872 5872 5872 5872 5872 5871 5871 5871 5871 5871 5871 5871 5872 5872 5872 5872 5872 5872 5872 5871 5871 5871 5871 5871 5871 5871 5871 5871 5871 5871 5870 5870 5870 5870 5869 5869 5869 5868 5868 5868 5867 5867 5866 5866 5866 5866 5866 5866 5866 5866 5866 5866 5866 5865 5865 5865 5865 5865 5865 5864 5864 5864 5864 5864 5864 5863 5863 5863 5863 5863 5863 5862 5862 5862 5862 5862 5862 5862 5861 5861 5861 5861 5861 5861 5861 5861 5861 5860 5860 5860 5860 5860 5860 5860 5860 5860 5860 5859
5870 5870 5870 5870 5870 5870 5870 5870 5870 5870 5870 5870 5870 5870 5870 5870 5870 5870 5870 5870 5870 5870 5870 5870 5870 5870 5870 5870 5870 5870 5870 5870 5870 5870 5870 5869 5869 5869 5868 5868 5868 5867 5867 5867 5866 5866 5865 5865 5865 5864 5864 5864 5864 5865 5865 5865 5865 5864 5864 5864 5864 5863 5863 5863 5863 5863 5862 5862 5862 5862 5862 5862 5861 5861 5861 5861 5861 5861 5860 5860 5860 5860 5860 5860 5860 5860 5859 5859 5859 5859 5859 5859 5859 5859 5859 5859 5859 5859 5859 5859 5859 5858 5858
5869 5869 5869 5869 5869 5869 5869 5869 5869 5869 5869 5869 5869 5868 5868 5868 5868 5868 5868 5868 5868 5868 5868 5868 5868 5868 5868 5868 5868 5868 5868 5868 5868 5868 5868 5868 5867 5867 5867 5867 5866 5866 5866 5865 5865 5865 5864 5864 5864 5863 5863 5863 5863 5863 5863 5863 5863 5863 5862 5862 5862 5862 5862 5861 5861 5861 5861 5861 5861 5860 5860 5860 5860 5860 5860 5860 5859 5859 5859 5859 5858 5858 5858 5858 5858 5858 5858 5858 5857 5857 5857 5857 5857 5857 5857 5857 5857 5857 5857 5857 5857 5857 5856
5867 5867 5867 5867 5867 5867 5867 5867 5867 5867 5867 5867 5867 5867 5867 5867 5866 5866 5866 5866 5866 5866 5866 5866 5866 5866 5866 5866 5866 5866 5867 5866 5866 5866 5866 5866 5866 5866 5865 5865 5865 5865 5865 5864 5864 5864 5863 5863 5863 5862 5862 5861 5861 5861 5861 5861 5861 5861 5861 5861 5860 5860 5860 5860 5860 5860 5860 5859 5859 5859 5859 5859 5858 5858 5858 5858 5858 5857 5857 5857 5857 5856 5856 5856 5856 5856 5856 5856 5856 5855 5855 5855 5855 5855 5855 5855 5855 5855 5855 5855 5855 5855 5855
5865 5865 5865 5865 5865 5865 5865 5865 5865 5865 5865 5865 5865 5865 5865 5865 5865 5865 5865 5865 5865 5865 5865 5865 5865 5865 5865 5865 5865 5865 5865 5865 5865 5865 5865 5865 5865 5864 5864 5864 5863 5863 5863 5862 5862 5862 5862 5861 5861 5861 5860 5860 5860 5860 5860 5860 5860 5860 5860 5859 5859 5859 5859 5859 5858 5858 5858 5858 5858 5858 5857 5857 5857 5857 5856 5856 5856 5855 5855 5855 5855 5855 5855 5855 5854 5854 5854 5854 5854 5854 5854 5853 5853 5853 5853 5853 5854 5854 5854 5854 5854 5854 5854
5864 5864 5864 5864 5864 5864 5864 5864 5864 5864 5864 5864 5864 5864 5864 5863 5863 5863 5863 5863 5863 5863 5863 5863 5863 5863 5863 5863 5863 5863 5863 5863 5863 5863 5863 5863 5863 5863 5863 5862 5862 5862 5861 5861 5861 5861 5860 5860 5860 5860 5859 5859 5859 5858 5858 5858 5858 5858 5858 5858 5858 5858 5857 5857 5857 5857 5856 5856 5856 5856 5856 5856 5855 5855 5855 5855 5854 5854 5854 5854 5853 5853 5853 5853 5852 5852 5852 5852 5852 5852 5852 5852 5851 5851 5851 5851 5851 5852 5852 5852 5852 5853 5852
5861 5862 5862 5862 5862 5862 5862 5862 5862 5862 5862 5862 5862 5862 5862 5862 5862 5861 5861 5861 5861 5861 5861 5861 5861 5861 5861 5861 5861 5861 5861 5861 5861 5861 5861 5861 5861 5861 5861 5861 5860 5860 5860 5860 5860 5859 5859 5859 5858 5858 5858 5857 5857 5857 5856 5856 5856 5856 5856 5856 5856 5856 5856 5856 5855 5855 5855 5855 5855 5855 5854 5854 5854 5854 5853 5853 5853 5852 5852 5852 5851 5851 5851 5851 5850 5850 5850 5850 5850 5850 5850 5850 5850 5850 5850 5850 5850 5850 5850 5850 5850 5850 5850
5860 5860 5860 5860 5860 5860 5860 5860 5860 5860 5860 5860 5860 5860 5860 5860 5860 5860 5860 5860 5860 5860 5860 5860 5860 5859 5859 5860 5860 5859 5859 5859 5859 5859 5859 5859 5859 5860 5859 5859 5859 5859 5859 5858 5858 5858 5857 5857 5857 5856 5856 5856 5855 5855 5855 5854 5854 5854 5854 5854 5854 5854 5854 5854 5854 5854 5854 5853 5853 5853 5853 5852 5852 5852 5851 5851 5851 5850 5850 5850 5850 5849 5849 5849 5849 5849 5848 5848 5848 5848 5848 5848 5848 5848 5848 5847 5847 5848 5848 5848 5848 5848 5849
5857 5858 5858 5858 5858 5858 5858 5859 5858 5858 5858 5858 5858 5858 5858 5858 5858 5858 5858 5858 5858 5858 5858 5858 5858 5858 5858 5857 5858 5858 5857 5857 5857 5857 5857 5857 5857 5857 5857 5857 5857 5857 5857 5856 5856 5856 5855 5855 5855 5855 5854 5854 5854 5853 5853 5853 5852 5852 5852 5852 5852 5852 5852 5852 5852 5852 5852 5852 5852 5851 5851 5851 5852 5852 5851 5850 5850 5849 5848 5848 5848 5848 5847 5847 5847 5847 5847 5846 5846 5846 5846 5846 5846 5846 5846 5846 5845 5845 5845 5846 5846 5846 5846
5855 5856 5856 5856 5856 5856 5856 5856 5856 5856 5856 5856 5856 5856 5856 5856 5856 5856 5856 5856 5856 5856 5856 5856 5856 5856 5856 5855 5855 5855 5855 5855 5855 5855 5855 5855 5855 5855 5855 5855 5855 5855 5855 5855 5854 5854 5854 5854 5854 5853 5852 5852 5852 5852 5851 5851 5850 5850 5850 5850 5850 5850 5850 5850 5850 5850 5850 5850 5850 5850 5850 5850 5850 5850 5850 5850 5849 5848 5847 5846 5846 5846 5845 5845 5845 5845 5845 5845 5845 5845 5845 5845 5844 5844 5844 5844 5844 5844 5844 5844 5844 5844 5844
5853 5854 5854 5854 5854 5854 5855 5855 5855 5855 5855 5855 5855 5855 5855 5855 5855 5855 5854 5854 5854 5854 5854 5854 5854 5854 5854 5854 5854 5854 5854 5853 5853 5853 5853 5853 5853 5853 5853 5853 5853 5853 5853 5853 5853 5852 5852 5852 5852 5851 5851 5850 5850 5850 5850 5849 5849 5849 5848 5848 5848 5848 5848 5848 5848 5848 5848 5848 5848 5848 5848 5848 5848 5848 5848 5848 5848 5847 5846 5846 5845 5845 5844 5844 5844 5843 5843 5843 5843 5843 5843 5843 5842 5842 5842 5842 5842 5842 5841 5841 5841 5842 5842
5851 5851 5852 5852 5852 5852 5852 5852 5852 5852 5852 5852 5852 5852 5852 5852 5852 5852 5852 5852 5852 5852 5852 5852 5852 5852 5852 5851 5851 5851 5851 5851 5851 5851 5851 5851 5851 5851 5851 5850 5850 5850 5850 5850 5850 5850 5850 5850 5850 5850 5849 5849 5849 5848 5848 5848 5847 5847 5847 5846 5846 5846 5846 5846 5846 5846 5846 5846 5846 5846 5846 5846 5846 5845 5845 5845 5845 5845 5845 5845 5844 5843 5842 5842 5842 5842 5842 5841 5841 5841 5841 5840 5840 5840 5840 5840 5840 5840 5840 5840 5840 5840 5840
5849 5849 5850 5850 5850 5850 5850 5850 5850 5850 5850 5850 5850 5850 5850 5850 5850 5850 5850 5850 5850 5850 5850 5850 5850 5850 5850 5849 5849 5849 5849 5849 5849 5849 5849 5849 5849 5848 5848 5848 5848 5848 5848 5848 5848 5848 5848 5848 5848 5848 5847 5847 5847 5846 5846 5845 5845 5845 5845 5845 5845 5844 5844 5844 5844 5844 5844 5844 5844 5844 5844 5844 5844 5843 5843 5843 5843 5843 5843 5843 5842 5841 5840 5840 5840 5840 5840 5840 5840 5839 5839 5839 5839 5838 5838 5838 5838 5838 5838 5838 5837 5837 5837
5847 5847 5847 5847 5848 5848 5848 5848 5848 5848 5848 5848 5848 5848 5848 5848 5848 5848 5848 5848 5848 5848 5848 5848 5847 5847 5847 5847 5847 5847 5847 5847 5846 5846 5846 5846 5846 5846 5846 5846 5846 5845 5845 5845 5845 5845 5845 5845 5845 5845 5845 5845 5845 5844 5844 5844 5844 5843 5843 5843 5842 5842 5842 5842 5841 5841 5841 5841 5841 5841 5841 5841 5841 5841 5841 5840 5840 5840 5840 5841 5840 5840 5839 5838 5838 5838 5838 5838 5837 5837 5837 5837 5836 5836 5836 5836 5836 5836 5836 5835 5835 5835 5835
5844 5845 5845 5845 5845 5845 5845 5845 5846 5846 5846 5846 5846 5846 5846 5846 5846 5846 5846 5846 5846 5846 5845 5845 5845 5845 5845 5845 5845 5845 5845 5845 5844 5844 5844 5844 5844 5844 5844 5843 5843 5843 5843 5843 5843 5843 5843 5843 5843 5843 5843 5843 5842 5842 5842 5842 5841 5841 5840 5840 5840 5840 5840 5840 5839 5839 5839 5839 5839 5839 5839 5839 5839 5839 5839 5838 5838 5838 5838 5838 5838 5838 5837 5836 5836 5836 5836 5836 5835 5835 5835 5835 5835 5834 5834 5834 5834 5834 5834 5833 5833 5833 5833
5842 5842 5842 5842 5842 5843 5843 5843 5843 5843 5843 5843 5843 5843 5844 5843 5843 5843 5843 5843 5843 5843 5843 5843 5843 5843 5843 5843 5843 5842 5842 5842 5842 5842 5841 5841 5841 5841 5841 5841 5841 5840 5840 5840 5840 5840 5840 5840 5840 5840 5840 5840 5840 5840 5840 5840 5839 5839 5838 5838 5838 5838 5838 5837 5837 5837 5837 5837 5836 5836 5836 5836 5836 5836 5836 5836 5836 5835 5835 5835 5835 5835 5835 5834 5833 5834 5834 5833 5833 5833 5833 5833 5832 5832 5832 5831 5831 5831 5831 5831 5831 5831 5831
5839 5839 5840 5840 5840 5840 5840 5840 5840 5840 5841 5841 5840 5841 5841 5841 5840 5840 5841 5841 5840 5840 5840 5840 5840 5840 5840 5840 5840 5840 5840 5840 5840 5839 5839 5839 5839 5839 5838 5838 5838 5838 5838 5837 5837 5837 5837 5837 5837 5837 5837 5837 5837 5837 5837 5837 5837 5836 5836 5836 5835 5835 5835 5835 5835 5835 5835 5835 5834 5834 5834 5834 5834 5834 5834 5834 5833 5833 5833 5833 5832 5832 5832 5832 5831 5831 5831 5831 5831 5831 5830 5830 5830 5830 5830 5829 5829 5829 5829 5829 5829 5829 5828
5836 5837 5837 5837 5837 5837 5837 5838 5838 5838 5838 5838 5838 5838 5838 5838 5838 5838 5838 5838 5838 5838 5838 5837 5837 5837 5837 5837 5837 5837 5837 5837 5837 5836 5836 5836 5836 5835 5835 5835 5835 5835 5835 5835 5835 5835 5835 5834 5834 5834 5834 5834 5834 5834 5834 5834 5834 5834 5834 5833 5833 5833 5832 5832 5832 5832 5832 5832 5832 5832 5831 5831 5831 5831 5831 5831 5831 5830 5830 5830 5830 5830 5830 5831 5830 5829 5829 5829 5828 5828 5828 5828 5828 5828 5827 5827 5827 5826 5826 5826 5826 5826 5826
5834 5834 5834 5835 5835 5835 5835 5835 5835 5835 5835 5835 5835 5835 5835 5835 5835 5835 5835 5835 5835 5835 5835 5834 5834 5834 5834 5834 5834 5834 5834 5833 5833 5834 5833 5833 5833 5832 5832 5832 5832 5832 5832 5831 5831 5831 5831 5831 5831 5831 5831 5830 5830 5830 5831 5831 5831 5831 5831 5831 5830 5830 5830 5830 5830 5830 5830 5830 5830 5829 5829 5829 5828 5828 5828 5828 5828 5828 5828 5828 5828 5827 5827 5828 5828 5827 5827 5826 5826 5826 5825 5825 5825 5825 5825 5825 5825 5824 5824 5824 5824 5823 5823
5832 5832 5832 5832 5832 5832 5832 5833 5833 5833 5833 5833 5832 5832 5832 5832 5832 5832 5832 5832 5831 5831 5831 5831 5831 5831 5831 5831 5831 5830 5830 5830 5830 5830 5830 5830 5830 5829 5829 5829 5829 5829 5829 5828 5828 5828 5828 5828 5828 5828 5828 5827 5827 5827 5827 5828 5828 5828 5828 5828 5828 5827 5827 5827 5827 5827 5827 5827 5827 5827 5826 5826 5826 5825 5825 5825 5825 5825 5825 5825 5825 5825 5825 5825 5825 5825 5825 5825 5824 5823 5823 5823 5823 5823 5822 5822 5822 5822 5821 5821 5821 5821 5821
5830 5830 5830 5830 5830 5830 5830 5830 5830 5830 5830 5830 5830 5829 5829 5829 5829 5829 5829 5829 5828 5828 5828 5828 5828 5828 5828 5828 5827 5827 5827 5827 5827 5827 5827 5827 5826 5826 5826 5825 5825 5825 5825 5825 5825 5825 5825 5825 5825 5825 5825 5824 5824 5824 5824 5824 5824 5825 5825 5825 5825 5825 5824 5824 5824 5824 5824 5824 5824 5824 5824 5824 5823 5823 5822 5822 5822 5822 5821 5822 5822 5822 5822 5822 5822 5822 5823 5823 5822 5821 5821 5820 5820 5820 5820 5820 5819 5819 5819 5819 5819 5818 5818
5827 5827 5827 5827 5827 5827 5827 5827 5827 5828 5827 5827 5827 5827 5826 5826 5826 5826 5826 5826 5825 5825 5825 5825 5825 5825 5825 5825 5824 5824 5824 5824 5823 5823 5823 5823 5823 5823 5822 5822 5822 5822 5822 5821 5821 5821 5821 5821 5821 5821 5821 5821 5821 5821 5820 5821 5821 5821 5821 5821 5821 5821 5821 5821 5821 5821 5821 5821 5821 5821 5821 5821 5820 5820 5820 5819 5819 5819 5818 5818 5818 5819 5819 5819 5819 5819 5819 5820 5820 5820 5820 5819 5819 5819 5819 5818 5816 5816 5816 5816 5816 5816 5815
5825 5825 5825 5825 5825 5825 5825 5825 5825 5825 5825 5824 5824 5824 5824 5824 5823 5823 5823 5823 5823 5822 5822 5822 5822 5822 5821 5821 5821 5821 5820 5820 5820 5820 5820 5820 5820 5819 5819 5819 5818 5818 5818 5818 5818 5818 5818 5818 5818 5818 5818 5818 5818 5817 5817 5817 5817 5818 5818 5818 5818 5818 5818 5818 5818 5818 5817 5817 5818 5818 5818 5818 5817 5817 5817 5817 5816 5816 5815 5815 5815 5815 5815 5815 5816 5816 5816 5816 5817 5817 5818 5817 5817 5816 5816 5816 5815 5813 5813 5813 5813 5813 5813
5823 5823 5823 5823 5822 5822 5822 5822 5822 5822 5822 5821 5821 5821 5821 5821 5820 5820 5820 5820 5820 5820 5819 5819 5819 5819 5819 5818 5818 5818 5817 5817 5817 5817 5816 5816 5816 5816 5815 5815 5815 5815 5815 5815 5815 5814 5814 5814 5814 5814 5814 5814 5814 5814 5814 5814 5814 5814 5814 5814 5814 5814 5814 5815 5815 5814 5814 5814 5814 5814 5814 5814 5814 5814 5814 5814 5813 5813 5813 5812 5812 5812 5812 5812 5812 5812 5813 5813 5813 5814 5814 5815 5815 5814 5814 5813 5813 5812 5810 5810 5810 5810 5810
5821 5820 5820 5820 5820 5820 5820 5820 5820 5819 5819 5819 5818 5818 5818 5818 5818 5817 5817 5817 5817 5816 5816 5816 5816 5815 5815 5815 5815 5815 5815 5814 5814 5813 5813 5813 5813 5812 5812 5812 5812 5811 5811 5811 5811 5811 5811 5811 5811 5810 5810 5810 5810 5810 5810 5810 5811 5811 5810 5810 5810 5810 5810 5811 5811 5811 5811 5811 5811 5811 5810 5810 5810 5810 5810 5810 5810 5810 5810 5810 5809 5809 5808 5808 5808 5809 5809 5810 5810 5810 5810 5811 5812 5812 5811 5811 5810 5810 5809 5808 5808 5807 5807
5818 5818 5818 5818 5817 5817 5817 5817 5817 5816 5816 5816 5815 5815 5815 5815 5815 5815 5814 5814 5814 5814 5813 5813 5813 5813 5813 5812 5812 5812 5811 5811 5811 5810 5810 5810 5810 5809 5809 5809 5808 5808 5808 5808 5808 5807 5807 5807 5807 5807 5807 5807 5807 5807 5807 5807 5807 5807 5807 5807 5807 5807 5807 5807 5807 5807 5807 5807 5807 5807 5807 5807 5807 5807 5807 5807 5807 5807 5807 5806 5806 5806 5805 5805 5805 5805 5805 5805 5806 5807 5807 5807 5808 5808 5809 5809 5808 5808 5807 5807 5805 5805 5804
5816 5816 5815 5815 5815 5815 5815 5814 5814 5814 5813 5813 5813 5813 5813 5812 5812 5812 5812 5811 5811 5811 5810 5810 5810 5810 5810 5810 5810 5809 5809 5808 5808 5807 5807 5807 5806 5806 5806 5805 5805 5805 5805 5805 5804 5804 5804 5804 5804 5803 5803 5803 5803 5803 5803 5803 5803 5803 5803 5803 5803 5803 5803 5803 5803 5803 5803 5803 5803 5803 5803 5803 5803 5803 5803 5803 5803 5803 5803 5803 5803 5803 5802 5802 5802 5801 5801 5802 5802 5803 5803 5804 5804 5804 5805 5805 5805 5805 5805 5805 5804 5803 5802
5814 5813 5813 5813 5812 5812 5812 5812 5812 5811 5811 5811 5810 5810 5810 5810 5810 5809 5809 5809 5808 5808 5808 5808 5807 5807 5807 5807 5807 5806 5806 5805 5805 5804 5804 5804 5803 5803 5803 5802 5802 5802 5802 5801 5801 5801 5800 5800 5800 5800 5800 5799 5799 5799 5799 5799 5799 5799 5799 5799 5799 5799 5799 5799 5799 5799 5799 5799 5799 5799 5799 5799 5799 5799 5799 5799 5799 5799 5799 5800 5800 5799 5799 5799 5799 5798 5798 5798 5798 5799 5799 5800 5800 5800 5801 5801 5802 5802 5802 5801 5801 5801 5800
5811 5811 5810 5810 5810 5810 5810 5810 5809 5809 5809 5809 5808 5808 5808 5807 5807 5807 5806 5806 5806 5805 5805 5805 5805 5804 5804 5804 5804 5803 5803 5802 5802 5801 5801 5800 5800 5800 5799 5799 5799 5798 5798 5798 5798 5798 5797 5797 5796 5796 5796 5796 5795 5795 5795 5795 5795 5795 5794 5794 5794 5794 5795 5795 5795 5795 5795 5795 5794 5794 5794 5795 5795 5795 5795 5795 5795 5795 5795 5795 5795 5796 5796 5796 5795 5795 5795 5795 5795 5795 5795 5795 5796 5796 5797 5797 5798 5798 5799 5798 5798 5798 5797
5809 5809 5808 5808 5808 5808 5808 5807 5807 5807 5806 5806 5806 5805 5805 5805 5805 5804 5804 5803 5803 5803 5802 5802 5801 5801 5801 5801 5800 5800 5800 5799 5799 5798 5798 5797 5797 5796 5796 5795 5795 5795 5795 5795 5794 5794 5794 5793 5793 5793 5792 5792 5792 5792 5791 5791 5791 5790 5790 5790 5790 5790 5790 5790 5790 5790 5790 5790 5790 5790 5790 5790 5790 5791 5790 5790 5790 5790 5790 5791 5791 5792 5792 5792 5792 5792 5792 5791 5791 5791 5791 5791 5791 5792 5792 5793 5793 5794 5795 5795 5795 5795 5794
5807 5806 5806 5806 5806 5805 5805 5805 5805 5805 5804 5804 5803 5803 5802 5802 5802 5801 5801 5800 5800 5800 5799 5799 5799 5798 5798 5797 5797 5797 5797 5796 5795 5795 5795 5794 5794 5793 5793 5792 5792 5791 5791 5791 5790 5790 5790 5790 5789 5789 5789 5789 5789 5788 5788 5787 5787 5787 5786 5786 5786 5786 5786 5786 5786 5786 5786 5786 5786 5786 5786 5786 5786 5786 5786 5786 5786 5786 5786 5786 5786 5787 5787 5788 5788 5788 5788 5788 5788 5787 5787 5787 5787 5788 5788 5788 5789 5790 5790 5790 5791 5791 5790
5804 5804 5804 5804 5803 5803 5803 5803 5802 5802 5801 5801 5800 5800 5800 5799 5799 5799 5798 5798 5797 5797 5796 5796 5795 5795 5795 5794 5794 5794 5793 5793 5792 5792 5791 5791 5790 5790 5790 5789 5789 5788 5788 5787 5787 5787 5786 5786 5785 5785 5785 5785 5785 5785 5784 5784 5783 5783 5783 5782 5782 5782 5782 5781 5781 5781 5781 5781 5781 5781 5782 5782 5782 5782 5781 5781 5781 5781 5782 5782 5782 5782 5782 5783 5783 5783 5783 5784 5784 5784 5784 5784 5784 5784 5784 5784 5785 5785 5785 5786 5786 5786 5786
5802 5802 5801 5801 5801 5800 5800 5800 5800 5799 5799 5798 5798 5797 5797 5796 5796 5796 5795 5795 5795 5794 5794 5793 5793 5792 5792 5791 5790 5790 5790 5789 5789 5788 5788 5788 5787 5787 5786 5786 5785 5785 5785 5784 5784 5783 5783 5782 5782 5782 5781 5781 5781 5781 5780 5780 5780 5779 5779 5779 5778 5778 5778 5778 5777 5777 5777 5776 5776 5777 5777 5777 5778 5777 5777 5777 5777 5777 5777 5777 5777 5777 5777 5778 5778 5778 5779 5779 5779 5779 5780 5780 5780 5780 5780 5780 5780 5780 5781 5781 5782 5782 5782
5800 5799 5799 5799 5798 5798 5798 5797 5797 5797 5796 5795 5795 5795 5794 5794 5793 5793 5792 5792 5792 5791 5791 5790 5790 5789 5789 5788 5787 5787 5786 5786 5785 5785 5785 5784 5784 5784 5783 5783 5782 5782 5781 5781 5780 5780 5780 5779 5779 5778 5778 5778 5777 5777 5777 5776 5776 5776 5776 5775 5775 5775 5774 5774 5773 5773 5772 5772 5772 5772 5773 5773 5773 5773 5773 5773 5773 5773 5773 5773 5773 5773 5773 5773 5773 5773 5774 5774 5775 5775 5775 5775 5776 5776 5776 5776 5776 5776 5776 5776 5777 5777 5778
5797 5797 5796 5796 5796 5795 5795 5795 5795 5794 5794 5793 5792 5792 5791 5791 5790 5790 5790 5789 5789 5788 5788 5787 5787 5786 5785 5785 5784 5784 5783 5782 5782 5781 5781 5781 5780 5780 5780 5780 5779 5779 5778 5778 5777 5777 5776 5776 5775 5775 5775 5775 5774 5774 5773 5773 5773 5773 5772 5772 5771 5771 5770 5770 5770 5769 5769 5769 5768 5768 5768 5768 5768 5768 5768 5768 5768 5769 5769 5769 5769 5769 5769 5769 5769 5769 5769 5770 5770 5770 5771 5771 5772 5772 5772 5772 5772 5772 5772 5772 5772 5772 5773
5794 5794 5794 5793 5793 5793 5792 5792 5792 5791 5791 5790 5790 5789 5789 5788 5788 5787 5786 5786 5785 5785 5784 5784 5784 5783 5782 5782 5781 5780 5780 5779 5778 5778 5778 5777 5776 5776 5776 5776 5775 5775 5775 5775 5774 5773 5773 5773 5772 5772 5771 5771 5770 5770 5770 5770 5770 5769 5769 5769 5768 5768 5767 5766 5766 5765 5765 5765 5765 5764 5764 5764 5764 5763 5763 5763 5764 5764 5764 5764 5765 5765 5765 5765 5765 5765 5765 5765 5765 5766 5766 5767 5767 5767 5768 5768 5768 5768 5768 5768 5768 5768 5768
5791 5791 5791 5790 5790 5790 5790 5789 5789 5788 5788 5787 5787 5786 5785 5785 5785 5784 5783 5783 5782 5782 5781 5780 5780 5780 5779 5778 5777 5777 5776 5775 5774 5774 5773 5772 5772 5772 5771 5771 5771 5771 5771 5770 5770 5770 5769 5769 5769 5768 5768 5767 5767 5767 5767 5766 5766 5765 5765 5765 5765 5764 5764 5763 5762 5762 5761 5761 5761 5760 5760 5760 5759 5759 5759 5759 5759 5759 5759 5759 5760 5760 5760 5760 5760 5760 5760 5761 5761 5761 5761 5762 5762 5762 5763 5763 5763 5764 5764 5764 5764 5763 5763
5788 5788 5788 5787 5787 5787 5786 5786 5785 5785 5785 5784 5783 5783 5782 5782 5781 5780 5780 5780 5779 5778 5778 5777 5776 5776 5775 5774 5773 5772 5772 5770 5770 5770 5769 5768 5768 5768 5767 5767 5767 5767 5766 5766 5766 5766 5766 5765 5765 5764 5764 5763 5763 5763 5763 5763 5762 5761 5761 5761 5760 5760 5760 5759 5759 5758 5758 5757 5757 5756 5756 5755 5755 5755 5754 5754 5754 5754 5754 5754 5755 5755 5755 5755 5756 5756 5756 5756 5756 5756 5757 5757 5757 5757 5757 5758 5758 5759 5759 5759 5759 5759 5759
5785 5785 5785 5784 5784 5783 5783 5782 5782 5781 5781 5780 5780 5779 5779 5778 5778 5777 5777 5776 5775 5775 5775 5774 5773 5772 5771 5770 5769 5768 5768 5766 5766 5765 5765 5763 5763 5763 5763 5762 5762 5762 5762 5762 5761 5761 5762 5761 5761 5761 5760 5760 5760 5759 5759 5758 5757 5757 5757 5756 5756 5755 5755 5755 5754 5754 5754 5753 5753 5752 5752 5751 5750 5750 5750 5749 5749 5749 5749 5749 5749 5750 5750 5750 5750 5751 5751 5751 5751 5752 5752 5752 5752 5752 5752 5752 5753 5753 5754 5754 5754 5755 5755
5782 5782 5781 5781 5780 5780 5780 5779 5779 5778 5778 5777 5776 5776 5775 5775 5774 5774 5773 5772 5771 5771 5770 5770 5769 5768 5767 5766 5765 5764 5763 5762 5761 5761 5761 5760 5759 5758 5758 5758 5758 5757 5758 5758 5757 5756 5757 5756 5755 5756 5757 5757 5756 5755 5755 5754 5753 5752 5752 5752 5751 5750 5750 5750 5749 5749 5749 5749 5748 5747 5747 5746 5746 5745 5745 5745 5744 5744 5743 5744 5744 5744 5744 5745 5745 5745 5746 5746 5746 5747 5747 5747 5747 5747 5747 5747 5747 5748 5748 5749 5749 5750 5750
5779 5779 5778 5778 5777 5777 5776 5776 5775 5775 5774 5774 5773 5772 5772 5771 5770 5770 5769 5769 5768 5767 5766 5765 5765 5765 5763 5762 5761 5760 5759 5758 5757 5756 5756 5755 5755 5754 5753 5753 5753 5752 5752 5753 5753 5751 5752 5752 5751 5751 5751 5753 5752 5751 5751 5750 5750 5748 5748 5747 5746 5745 5745 5745 5744 5744 5744 5743 5743 5742 5742 5741 5741 5740 5740 5740 5739 5739 5739 5738 5738 5739 5739 5739 5740 5740 5740 5741 5741 5741 5742 5742 5742 5742 5742 5742 5743 5743 5743 5744 5744 5745 5745
5776 5776 5775 5775 5774 5774 5773 5773 5772 5771 5771 5770 5770 5769 5768 5767 5767 5766 5765 5765 5764 5763 5762 5761 5761 5760 5759 5757 5756 5756 5755 5754 5753 5752 5751 5750 5750 5750 5749 5748 5748 5748 5748 5748 5748 5747 5747 5747 5747 5747 5746 5747 5747 5747 5746 5746 5746 5745 5744 5743 5742 5741 5740 5740 5739 5739 5738 5738 5737 5737 5736 5736 5735 5735 5735 5735 5734 5734 5734 5734 5733 5734 5734 5734 5734 5735 5735 5735 5736 5736 5737 5737 5737 5737 5738 5738 5738 5738 5738 5738 5739 5740 5740
5774 5773 5773 5772 5771 5771 5770 5770 5769 5768 5767 5767 5766 5765 5764 5764 5763 5762 5761 5760 5760 5759 5758 5757 5756 5755 5755 5754 5752 5751 5750 5749 5748 5748 5748 5746 5746 5746 5745 5745 5744 5744 5744 5743 5743 5743 5743 5743 5744 5743 5742 5743 5743 5742 5741 5741 5741 5740 5740 5739 5738 5737 5736 5735 5735 5734 5733 5732 5732 5731 5731 5730 5730 5730 5729 5729 5729 5729 5729 5729 5729 5729 5729 5729 5729 5730 5730 5731 5731 5731 5732 5732 5733 5733 5733 5733 5733 5733 5733 5733 5734 5734 5735
5771 5770 5769 5769 5768 5768 5767 5766 5766 5765 5764 5763 5762 5761 5760 5760 5759 5758 5757 5756 5755 5755 5754 5753 5752 5750 5750 5749 5748 5746 5745 5744 5743 5743 5743 5742 5741 5741 5741 5741 5740 5740 5740 5739 5739 5739 5738 5739 5740 5740 5738 5739 5739 5738 5737 5737 5737 5736 5735 5735 5734 5733 5731 5730 5730 5729 5728 5727 5727 5726 5725 5725 5725 5724 5724 5724 5724 5724 5723 5723 5723 5723 5723 5724 5724 5725 5725 5726 5726 5726 5727 5728 5728 5728 5729 5729 5729 5728 5728 5728 5728 5729 5729
5767 5767 5766 5766 5765 5765 5764 5763 5762 5761 5760 5760 5759 5758 5757 5756 5755 5754 5753 5752 5751 5750 5749 5748 5747 5746 5745 5744 5743 5742 5740 5740 5739 5739 5739 5738 5738 5737 5737 5737 5737 5736 5736 5736 5736 5735 5735 5735 5735 5735 5735 5735 5735 5734 5734 5733 5732 5732 5731 5730 5729 5728 5727 5726 5725 5724 5724 5723 5722 5721 5720 5720 5719 5719 5718 5718 5718 5718 5718 5718 5718 5718 5718 5718 5719 5719 5720 5720 5721 5721 5722 5722 5723 5723 5723 5724 5724 5724 5723 5723 5723 5723 5724
5764 5764 5763 5762 5762 5761 5760 5760 5759 5758 5757 5756 5755 5754 5753 5752 5751 5750 5749 5748 5746 5745 5744 5743 5742 5741 5740 5739 5738 5737 5736 5735 5735 5735 5735 5734 5734 5734 5734 5733 5733 5733 5733 5732 5732 5732 5732 5732 5731 5731 5732 5731 5730 5730 5730 5729 5728 5728 5727 5726 5725 5725 5724 5723 5722 5720 5720 5719 5718 5717 5716 5715 5715 5714 5714 5713 5713 5713 5713 5712 5712 5712 5712 5712 5713 5713 5714 5714 5715 5715 5716 5717 5717 5718 5718 5718 5718 5718 5718 5718 5718 5718 5718
5761 5760 5760 5759 5758 5758 5757 5756 5755 5754 5753 5752 5751 5750 5749 5748 5746 5745 5744 5743 5742 5741 5740 5738 5737 5736 5735 5734 5734 5733 5731 5731 5730 5731 5731 5730 5729 5729 5730 5730 5730 5729 5729 5729 5729 5729 5728 5728 5727 5727 5728 5728 5728 5727 5727 5725 5725 5725 5724 5723 5722 5721 5721 5720 5719 5717 5716 5715 5714 5713 5712 5712 5711 5710 5710 5709 5709 5708 5708 5707 5707 5707 5706 5707 5707 5707 5708 5709 5709 5710 5710 5710 5711 5712 5712 5712 5712 5713 5713 5713 5713 5712 5712
5757 5757 5756 5755 5755 5754 5753 5752 5752 5751 5750 5749 5747 5746 5745 5744 5742 5741 5740 5739 5737 5736 5735 5734 5733 5731 5730 5730 5729 5729 5728 5727 5727 5727 5727 5726 5726 5725 5726 5726 5726 5726 5726 5725 5725 5725 5725 5725 5724 5724 5724 5724 5725 5725 5724 5723 5722 5721 5720 5720 5719 5719 5718 5717 5715 5714 5713 5712 5711 5710 5709 5708 5708 5707 5706 5705 5705 5704 5704 5703 5703 5702 5702 5702 5702 5702 5702 5703 5703 5704 5704 5705 5705 5705 5706 5706 5706 5707 5707 5707 5707 5707 5707